Location: Central Falls
(41.8900°N, 71.3929°W)
Time: 08:19:37
(UTC+00:00)

Altair - Pass Details

Date: 09 December 2023
Orbit: 1501 x 1682 km, 47.2° (Epoch: 29 February)

Event Time Altitude Azimuth Distance (km) Brightness Sun altitude
Rises 15:28:29 0° 284° (WNW) 4,788 9.8 23.3°
Reaches altitude 10° 15:31:40 10° 287° (WNW) 3,777 9.3 23.5°
Maximum altitude 15:41:09 67° 10° (N) 1,645 7.8 24.0°
Drops below altitude 10° 15:50:21 10° 93° (E) 3,662 9.8 24.3°
Sets 15:53:23 0° 96° (E) 4,635 10.2 24.5°
